Weather History for KRWF - October, 2012

Change the Weather History Date:

Monday, October 8, 2012

  Actual Average Record
Temperature  
Mean Temperature 52 °F -  
Max Temperature 68 °F 60 °F 90 °F (2010)
Min Temperature 37 °F 41 °F 16 °F (2000)
Degree Days  
Heating Degree Days 12    
Growing Degree Days 2 (Base 50)    
Moisture  
Dew Point 29 °F    
Average Humidity 43    
Maximum Humidity 61    
Minimum Humidity 28    
Precipitation  
Precipitation 0.00 in - - ()
Sea Level Pressure  
Sea Level Pressure 29.72 in    
Wind  
Wind Speed 13 mph (SW)    
Max Wind Speed 23 mph    
Max Gust Speed 32 mph    
Visibility 10 miles    
Events      
Averages and records for this station are not official NWS values.
T = Trace of Precipitation, MM = Missing Value Source: NWS Daily Summary

Daily Weather History Graph

Daily Weather History Graph

Search for Another Location

Airport or City:

Trip Planner

Search our weather history database for the weather conditions in past years. The results will help you decide how hot, cold, wet, or windy it might be!

Date:

Astronomy

Oct. 08, 2012 Rise Set
Actual Time 7:27 AM CDT 6:47 PM CDT
Civil Twilight 6:58 AM CDT 7:16 PM CDT
Nautical Twilight 6:24 AM CDT 7:50 PM CDT
Astronomical Twilight 5:50 AM CDT 8:23 PM CDT
Moon No Moon Rise 2:51 PM CDT (10/8)
Length of Visible Light 12h 18m
Length of Day
11h 19m
Last Quarter, 46% of the Moon is Illuminated
Oct 8
Last Quarter
Oct 15
New
Oct 21
First Quarter
Oct 29
Full
Nov 6
Last Quarter

Hourly Weather History & Observations

Time (CDT) Temp. Windchill Dew Point Humidity Pressure Visibility Wind Dir Wind Speed Gust Speed Precip Events Conditions
12:53 AM 39.0 °F 31.0 °F 18.0 °F 43% 29.85 in 10.0 mi SSW 13.8 mph - N/A   Clear
1:53 AM 37.0 °F 29.3 °F 19.0 °F 48% 29.84 in 10.0 mi SSW 11.5 mph - N/A   Clear
2:53 AM 37.9 °F 30.0 °F 19.9 °F 48% 29.83 in 10.0 mi SW 12.7 mph - N/A   Clear
3:53 AM 39.0 °F 33.4 °F 21.0 °F 49% 29.81 in 10.0 mi SSW 8.1 mph - N/A   Mostly Cloudy
4:53 AM 41.0 °F 35.2 °F 23.0 °F 49% 29.78 in 10.0 mi SSW 9.2 mph - N/A   Overcast
5:53 AM 43.0 °F 36.8 °F 24.1 °F 47% 29.77 in 10.0 mi SSW 11.5 mph - N/A   Overcast
6:53 AM 45.0 °F 38.9 °F 25.0 °F 46% 29.75 in 10.0 mi SSW 12.7 mph - N/A   Overcast
7:53 AM 46.0 °F 40.2 °F 26.1 °F 46% 29.75 in 10.0 mi SSW 12.7 mph - N/A   Overcast
8:53 AM 46.9 °F - 26.1 °F 44% 29.74 in 10.0 mi SSW 13.8 mph - N/A   Overcast
9:53 AM 50.0 °F - 27.0 °F 41% 29.72 in 10.0 mi SSW 15.0 mph - N/A   Partly Cloudy
10:53 AM 54.0 °F - 28.0 °F 37% 29.69 in 10.0 mi SSW 18.4 mph 24.2 mph N/A   Overcast
11:53 AM 57.0 °F - 28.9 °F 34% 29.67 in 10.0 mi SW 19.6 mph 26.5 mph N/A   Mostly Cloudy
12:53 PM 55.9 °F - 30.9 °F 39% 29.64 in 10.0 mi SSW 17.3 mph - 0.00 in   Overcast
1:53 PM 63.0 °F - 30.0 °F 29% 29.61 in 10.0 mi SW 16.1 mph - 0.00 in   Overcast
2:53 PM 66.9 °F - 33.1 °F 28% 29.61 in 10.0 mi West 20.7 mph 28.8 mph N/A   Mostly Cloudy
3:53 PM 68.0 °F - 37.9 °F 33% 29.60 in 10.0 mi West 23.0 mph 32.2 mph N/A   Mostly Cloudy
4:53 PM 66.0 °F - 39.0 °F 37% 29.63 in 10.0 mi WNW 21.9 mph 28.8 mph N/A   Overcast
5:53 PM 64.0 °F - 37.9 °F 38% 29.66 in 10.0 mi WNW 19.6 mph 25.3 mph N/A   Mostly Cloudy
6:53 PM 60.1 °F - 37.9 °F 44% 29.69 in 10.0 mi NW 15.0 mph 24.2 mph N/A   Overcast
7:53 PM 57.0 °F - 37.0 °F 47% 29.73 in 10.0 mi NNW 11.5 mph 20.7 mph N/A   Overcast
9:53 PM 52.0 °F - 36.0 °F 54% 29.76 in 10.0 mi West 3.5 mph - N/A   Clear
10:53 PM 48.9 °F - 36.0 °F 61% 29.76 in 10.0 mi SW 4.6 mph - N/A   Partly Cloudy
11:53 PM 51.1 °F - 36.0 °F 56% 29.76 in 10.0 mi WSW 5.8 mph - N/A   Overcast